MOLNIYA 2-9 1 07276U 74026A 23340.32892224 .00000203 00000-0 00000-0 0 9990 2 07276 64.2813 154.7425 6387159 273.7189 20.5597 2.45096623262377 MOLNIYA 2-10 1 07376U 74056A 23339.39931460 .00000936 00000-0 00000-0 0 9998 2 07376 64.9283 37.9070 6834962 281.6495 14.3322 2.01081823361130 MOLNIYA 1-S 1 07392U 74060A 23340.85783317 -.00000245 00000-0 00000-0 0 9994 2 07392 3.7485 274.2716 0009928 233.7382 329.7880 1.00330937124915 MOLNIYA 1-29 1 7780U 75036A 23340.55322615 .00000240 00000-0 -89916-1 0 9995 2 7780 63.4381 158.9815 6710662 285.4278 14.0454 2.00619244356426 MOLNIYA 2-14 1 08195U 75081A 23339.09947585 .00001229 00000-0 00000-0 0 9995 2 08195 63.4898 132.4787 6688049 290.0452 12.8588 2.02082917353710 MOLNIYA 1-32 1 08601U 76006A 23338.96426217 .00000525 00000-0 00000-0 0 9992 2 08601 63.6309 229.7750 6950083 283.1607 13.2443 2.00080816 63375 MOLNIYA 1-36 1 9880U 77021A 23340.78144089 .00001409 00000-0 00000+0 0 9998 2 9880 63.5751 204.0918 6859685 288.4015 12.3871 2.00724520240238 MOLNIYA 3-8 1 10455U 77105A 23340.85893112 -.00000711 00000-0 -81027-2 0 9995 2 10455 63.6798 280.1960 7179640 282.5769 11.8521 2.00819831337929 MOLNIYA 1-40 1 10925U 78055A 23340.04224223 -.00000004 00000-0 00000-0 0 9998 2 10925 63.8916 332.2338 7221219 280.1877 12.0919 2.00733032333442 MOLNIYA 3-10 1 11057U 78095A 23340.57963049 -.00000103 00000-0 -13502-2 0 9997 2 11057 63.2684 204.3432 5714248 314.1113 11.2233 4.09899492405744 MOLNIYA 3-13 1 11896U 80063A 23340.28623103 .00000089 00000-0 00000-0 0 9996 2 11896 63.1088 64.2625 7282719 277.6957 12.4497 2.00679193317866 MOLNIYA 1-52 1 13012U 81123A 23339.12947533 -.00000525 00000-0 -14539-1 0 9993 2 13012 61.4544 203.6405 7144855 261.9622 18.8927 2.00402701307321 MOLNIYA 1-53 1 13070U 82015A 23340.52471968 .00000081 00000-0 -45120-1 0 9994 2 13070 62.6998 150.8953 6916082 283.2497 13.3402 2.00869246306022 MOLNIYA 3-20 1 13875U 83015A 23339.92530016 .00001430 00000-0 56293-2 0 9992 2 13875 62.1091 269.1276 7274694 264.0599 16.9095 2.00539520234478 MOLNIYA 1-56 1 13890U 83019A 23340.23175685 -.00001344 00000-0 60159-4 0 9999 2 13890 62.6640 292.2013 7357538 269.3190 14.3511 2.00070855297330 MOLNIYA 1-63 1 15429U 84124A 23339.54752792 .00001440 00000-0 00000+0 0 9999 2 15429 63.6312 112.5492 6921899 256.6909 31.9829 2.00578734285552 MOLNIYA 3-24 1 15738U 85040A 23339.86891890 -.00000071 00000-0 81583-3 0 9997 2 15738 63.1639 338.2411 6917534 248.1069 28.8111 2.55646004317588 MOLNIYA 3-27 1 16393U 85117A 23339.01421896 -.00000240 00000-0 00000-0 0 9992 2 16393 63.8429 6.9464 7149538 245.7081 27.5637 2.12400775285552 MOLNIYA 1-69 1 17078U 86089A 23340.25761308 -.00000272 00000-0 00000-0 0 9990 2 17078 63.9491 132.6057 6898819 253.6537 25.5321 2.00654851271606 MOLNIYA 3-31 1 17328U 87008A 23339.78361134 .00000243 00000-0 00000-0 0 9996 2 17328 63.4688 58.1896 7316188 253.0013 21.2742 2.00676160266621 MOLNIYA 1-71 1 18946U 88017A 23340.21662395 -.00000439 00000-0 16461-3 0 9996 2 18946 63.1837 47.0281 7410363 257.0709 18.3625 2.00627799261820 MOLNIYA 1-75 1 19807U 89014A 23339.91872842 .00001093 00000-0 00000-0 0 9991 2 19807 63.8205 228.9181 6656245 263.4380 22.8632 2.00418921254755 MOLNIYA 1-80 1 21118U 91012A 23340.07596361 .00000856 00000-0 00000-0 0 9994 2 21118 65.0892 277.0660 6587834 270.4691 20.2597 2.05234339241994 MOLNIYA 3-40 1 21196U 91022A 23339.76819656 -.00001034 00000-0 00000-0 0 9990 2 21196 64.9184 271.0596 6614744 267.5529 21.3064 2.03015009240575 MOLNIYA 1-81 1 21426U 91043A 23340.37860118 .00000013 00000-0 00000-0 0 9992 2 21426 63.7096 277.9276 6945249 264.2161 19.7818 2.00627624237936 MOLNIYA 3-41 1 21706U 91065A 23340.21833870 -.00000106 00000-0 00000-0 0 9999 2 21706 63.9834 102.3353 7141811 251.8141 23.8822 2.04342922237839 MOLNIYA 3-42 1 22178U 92067A 23337.28348217 .00000173 00000-0 00000-0 0 9998 2 22178 64.6789 159.7827 6502141 258.2159 27.1497 2.20434296 91824 MOLNIYA 1-86 1 22671U 93035A 23341.15286064 .00000728 00000-0 94034-3 0 9993 2 22671 63.0582 284.1641 4861248 15.3593 355.3095 5.63056529382519 MOLNIYA 1-87 1 22949U 93079A 23339.37658724 .00001134 00000-0 00000-0 0 9995 2 22949 64.6939 29.3636 6974421 280.1840 13.7994 2.02852830 85804 MOLNIYA 1-88 1 23420U 94081A 23340.42154201 .00000023 00000-0 00000-0 0 9999 2 23420 64.3604 76.6046 5867222 273.2305 25.2518 3.34495348131662 MOLNIYA 3-47 1 23642U 95042A 23339.04022473 -.00001421 00000-0 00000-0 0 9998 2 23642 64.8164 10.9355 6977718 280.2955 13.7095 2.01961426207833 MOLNIYA 1-90 1 24960U 97054A 23340.29376781 -.00000007 00000-0 -53807-3 0 9996 2 24960 64.0769 41.7058 6107227 294.0175 15.1836 3.18689198225111 MOLNIYA 1-91 1 25485U 98054A 23340.11051911 .00000056 00000-0 00000-0 0 9992 2 25485 63.6158 66.2562 6811978 291.3489 11.8572 2.36443439191720 MOLNIYA 3-50 1 25847U 99036A 23339.83094215 .00000030 00000-0 -20070-1 0 9999 2 25847 63.4304 257.6519 7133909 282.7807 12.1470 2.00653157178874